Weather History for LICJ - December, 2013

Change the Weather History Date:

Wednesday, December 25, 2013

  Actual Average Record
Temperature  
Mean Temperature 55 °F -  
Max Temperature 64 °F 59 °F 68 °F (2000)
Min Temperature 46 °F 50 °F 42 °F (2005)
Degree Days  
Heating Degree Days 10    
Growing Degree Days 5 (Base 50)    
Moisture  
Dew Point 43 °F    
Average Humidity 57    
Maximum Humidity 71    
Minimum Humidity 42    
Precipitation  
Precipitation 0.00 in 0.10 in - ()
Sea Level Pressure  
Sea Level Pressure 29.98 in    
Wind  
Wind Speed 11 mph ()    
Max Wind Speed 43 mph    
Max Gust Speed 59 mph    
Visibility 10.0 miles    
Events      
Averages and records for this station are not official NWS values.
T = Trace of Precipitation, MM = Missing Value Source: Averaged Metar Reports

Daily Weather History Graph

Daily Weather History Graph

Search for Another Location

Airport or City:

Trip Planner

Search our weather history database for the weather conditions in past years. The results will help you decide how hot, cold, wet, or windy it might be!

Date:

Astronomy

Dec. 25, 2013 Rise Set
Actual Time 7:22 AM CET 4:53 PM CET
Civil Twilight 6:52 AM CET 5:22 PM CET
Nautical Twilight 6:19 AM CET 5:56 PM CET
Astronomical Twilight 5:47 AM CET 6:28 PM CET
Moon No Moon Rise 11:43 AM CET (12/25)
Length of Visible Light 10h 30m
Length of Day
9h 30m
Waning Gibbous, 51% of the Moon is Illuminated
Dec 25
Waning Gibbous
Dec 25
Last Quarter
Jan 1
New
Jan 8
First Quarter
Jan 16
Full

Hourly Weather History & Observations

Time (CET) Temp. Windchill Dew Point Humidity Pressure Visibility Wind Dir Wind Speed Gust Speed Precip Events Conditions
12:20 AM 48.2 °F - 39.2 °F 71% 30.12 in - SSE 8.1 mph - N/A   Clear
12:50 AM 48.2 °F - 39.2 °F 71% 30.12 in - SSE 6.9 mph - N/A   Clear
1:00 AM 48 °F - 38 °F 60% 30.16 in 6 mi SSW 6.9 mph - -  
1:20 AM 48.2 °F - 39.2 °F 71% 30.12 in - SSE 8.1 mph - N/A   Clear
1:50 AM 48.2 °F - 39.2 °F 71% 30.12 in - SSE 6.9 mph - N/A   Clear
2:20 AM 48.2 °F - 37.4 °F 66% 30.12 in - SSW 4.6 mph - N/A   Clear
2:50 AM 50.0 °F - 37.4 °F 62% 30.12 in - South 6.9 mph - N/A   Clear
3:20 AM 48.2 °F - 35.6 °F 62% 30.12 in - South 8.1 mph - N/A   Clear
3:50 AM 46.4 °F 42.9 °F 35.6 °F 66% 30.09 in - South 6.9 mph - N/A   Clear
4:00 AM 47 °F - 35 °F 52% 30.13 in 6 mi ESE 2.3 mph - -  
4:20 AM 51.8 °F - 33.8 °F 50% 30.09 in - SE 3.5 mph - N/A   Clear
4:50 AM 51.8 °F - 33.8 °F 50% 30.09 in - South 2.3 mph - N/A   Clear
5:20 AM 48.2 °F - 35.6 °F 62% 30.09 in - SSE 2.3 mph - N/A   Clear
5:50 AM 51.8 °F - 35.6 °F 54% 30.06 in - SSE 3.5 mph - N/A   Clear
6:50 AM 50.0 °F - 37.4 °F 62% 30.06 in - SSW 1.2 mph - N/A   Clear
7:00 AM 50 °F - 38 °F 52% 30.10 in 12 mi South 2.3 mph - -  
7:20 AM 48.2 °F - 37.4 °F 66% 30.06 in - South 2.3 mph - N/A   Clear
7:50 AM 55.4 °F - 37.4 °F 51% 30.06 in - South 2.3 mph - N/A   Clear
8:20 AM 53.6 °F - 37.4 °F 54% 30.06 in - SSW 4.6 mph - N/A   Clear
8:50 AM 57.2 °F - 42.8 °F 59% 30.06 in - South 6.9 mph - N/A   Clear
9:20 AM 59.0 °F - 44.6 °F 59% 30.06 in - South 8.1 mph - N/A   Clear
9:50 AM 60.8 °F - 44.6 °F 55% 30.06 in - South 11.5 mph - N/A   Clear
10:00 AM 60 °F - 44 °F 45% 30.10 in 12 mi SSE 4.6 mph - -  
10:20 AM 60.8 °F - 44.6 °F 55% 30.06 in - South 11.5 mph - N/A   Clear
10:50 AM 60.8 °F - 44.6 °F 55% 30.06 in - South 15.0 mph - N/A   Clear
11:20 AM 62.6 °F - 44.6 °F 52% 30.04 in - South 13.8 mph 25.3 mph N/A   Clear
11:50 AM 62.6 °F - 44.6 °F 52% 30.04 in - South 16.1 mph - N/A   Clear
12:20 PM 62.6 °F - 46.4 °F 55% 30.01 in - South 17.3 mph - N/A   Clear
12:50 PM 62.6 °F - 48.2 °F 59% 29.98 in - South 17.3 mph - N/A   Clear
1:00 PM 63 °F - 48 °F 47% 30.01 in 12 mi South 1.2 mph - -  
1:20 PM 64.4 °F - 48.2 °F 56% 29.98 in - South 23.0 mph - N/A   Clear
1:50 PM 64.4 °F - 46.4 °F 52% 29.95 in - South 16.1 mph - N/A   Clear
2:20 PM 64.4 °F - 48.2 °F 56% 29.95 in - South 23.0 mph - N/A   Clear
2:50 PM 64.4 °F - 48.2 °F 56% 29.95 in - South 16.1 mph 27.6 mph N/A   Clear
3:20 PM 62.6 °F - 48.2 °F 59% 29.95 in - South 15.0 mph - N/A   Clear
3:50 PM 62.6 °F - 46.4 °F 55% 29.92 in - South 19.6 mph - N/A   Clear
4:00 PM 63 °F - 46 °F 42% 29.94 in 12 mi ENE 4.6 mph - -  
4:20 PM 62.6 °F - 42.8 °F 48% 29.92 in - South 17.3 mph - N/A   Clear
5:20 PM 62.6 °F - 44.6 °F 52% 29.89 in - South 17.3 mph - N/A   Clear
5:50 PM 62.6 °F - 46.4 °F 55% 29.89 in - South 18.4 mph - N/A   Clear
6:20 PM 60.8 °F - 46.4 °F 59% 29.89 in - South 20.7 mph - N/A   Clear
6:50 PM 60.8 °F - 46.4 °F 59% 29.86 in - South 16.1 mph 31.1 mph N/A   Clear
7:00 PM 62 °F - 46 °F 45% 29.88 in 12 mi SSE 1.2 mph - -  
7:20 PM 62.6 °F - 44.6 °F 52% 29.83 in - South 21.9 mph 36.8 mph N/A   Clear
7:50 PM 62.6 °F - 44.6 °F 52% 29.80 in - South 23.0 mph 33.4 mph N/A   Clear
8:20 PM 62.6 °F - 46.4 °F 55% 29.83 in - South 34.5 mph 47.2 mph N/A   Clear
8:50 PM 62.6 °F - 46.4 °F 55% 29.83 in - South 25.3 mph 43.7 mph N/A   Clear
9:20 PM 62.6 °F - 48.2 °F 59% 29.80 in - South 39.1 mph 58.7 mph N/A   Clear
9:50 PM 62.6 °F - 48.2 °F 59% 29.80 in - South 42.6 mph 55.2 mph N/A   Clear
10:00 PM 62 °F - 47 °F 48% 29.78 in 12 mi South 33.4 mph - -  
10:20 PM 62.6 °F - 48.2 °F 59% 29.77 in - South 35.7 mph 52.9 mph N/A   Clear
10:50 PM 62.6 °F - 48.2 °F 59% 29.77 in - South 35.7 mph 50.6 mph N/A   Clear
11:20 PM 62.6 °F - 48.2 °F 59% 29.74 in - South 39.1 mph 51.8 mph N/A   Clear
11:50 PM 62.6 °F - 48.2 °F 59% 29.74 in 6.2 mi South 38.0 mph 49.5 mph N/A   Scattered Clouds